Location: Risskov
(56.1972°N, 10.2480°E)
Time: 00:12:55
(UTC+00:00)

TSX-5 - Pass Details

Date: 05 July 2020
Orbit: 404 x 1328 km, 68.9° (Epoch: 03 August)

Event Time Altitude Azimuth Distance (km) Brightness Sun altitude
Rises 21:28:53 0° 318° (NW) 2,374 8.9 -7.5°
Reaches altitude 10° 21:30:51 10° 313° (NW) 1,550 7.4 -7.6°
Maximum altitude 21:34:06 51° 236° (WSW) 611 4.0 -7.8°
Enters shadow 21:37:52 10° 161° (SSE) 1,793 5.8 -8.0°
